TimeCDT,TemperatureF,Dew PointF,Humidity,Sea Level PressureIn,VisibilityMPH,Wind Direction,Wind SpeedMPH,Gust SpeedMPH,PrecipitationIn,Events,Conditions,WindDirDegrees,DateUTC
12:15 AM,69.8,60.8,73,30.04,10.0,SSW,13.8,-,N/A,,Clear,200,2013-08-18 05:15:00
12:35 AM,69.8,60.8,73,30.04,10.0,SSW,11.5,17.3,N/A,,Clear,200,2013-08-18 05:35:00
12:55 AM,69.8,60.8,73,30.05,10.0,SSW,11.5,17.3,N/A,,Clear,210,2013-08-18 05:55:00
1:15 AM,69.8,60.8,73,30.05,10.0,SSW,13.8,-,N/A,,Clear,210,2013-08-18 06:15:00
1:35 AM,69.8,60.8,73,30.05,10.0,SSW,13.8,19.6,N/A,,Clear,200,2013-08-18 06:35:00
1:55 AM,69.8,60.8,73,30.05,10.0,SSW,15.0,-,N/A,,Clear,200,2013-08-18 06:55:00
2:15 AM,68.0,60.8,78,30.05,10.0,SSW,12.7,-,N/A,,Clear,200,2013-08-18 07:15:00
2:35 AM,68.0,60.8,78,30.05,10.0,SSW,13.8,17.3,N/A,,Clear,200,2013-08-18 07:35:00
2:55 AM,68.0,60.8,78,30.04,10.0,SSW,12.7,20.7,N/A,,Clear,200,2013-08-18 07:55:00
3:16 AM,68.0,60.8,78,30.04,10.0,SSW,13.8,-,N/A,,Scattered Clouds,200,2013-08-18 08:16:00
3:35 AM,68.0,59.0,73,30.04,10.0,SSW,12.7,18.4,N/A,,Scattered Clouds,200,2013-08-18 08:35:00
3:55 AM,68.0,59.0,73,30.03,10.0,SSW,10.4,-,N/A,,Clear,210,2013-08-18 08:55:00
4:16 AM,68.0,59.0,73,30.03,10.0,SSW,11.5,-,N/A,,Scattered Clouds,200,2013-08-18 09:16:00
4:35 AM,68.0,59.0,73,30.02,10.0,SSW,11.5,18.4,N/A,,Scattered Clouds,200,2013-08-18 09:35:00
4:55 AM,68.0,59.0,73,30.02,10.0,SSW,13.8,19.6,N/A,,Clear,200,2013-08-18 09:55:00
5:16 AM,68.0,59.0,73,30.02,10.0,SSW,9.2,-,N/A,,Clear,200,2013-08-18 10:16:00
5:35 AM,68.0,59.0,73,30.02,10.0,SSW,10.4,-,N/A,,Scattered Clouds,200,2013-08-18 10:35:00
5:55 AM,66.2,59.0,78,30.02,10.0,South,9.2,-,N/A,,Clear,190,2013-08-18 10:55:00
6:16 AM,66.2,59.0,78,30.02,10.0,South,8.1,-,N/A,,Clear,190,2013-08-18 11:16:00
6:35 AM,64.4,59.0,83,30.02,10.0,South,10.4,-,N/A,,Clear,180,2013-08-18 11:35:00
6:55 AM,64.4,59.0,83,30.02,10.0,South,10.4,-,N/A,,Clear,190,2013-08-18 11:55:00
7:16 AM,64.4,59.0,83,30.02,10.0,South,11.5,-,N/A,,Clear,180,2013-08-18 12:16:00
7:35 AM,64.4,59.0,83,30.02,10.0,South,12.7,-,N/A,,Clear,190,2013-08-18 12:35:00
7:55 AM,66.2,59.0,78,30.02,10.0,South,11.5,-,N/A,,Clear,190,2013-08-18 12:55:00
8:16 AM,68.0,59.0,73,30.02,10.0,South,11.5,16.1,N/A,,Clear,190,2013-08-18 13:16:00
8:35 AM,68.0,59.0,73,30.02,10.0,South,13.8,18.4,N/A,,Clear,190,2013-08-18 13:35:00
8:55 AM,68.0,59.0,73,30.01,10.0,South,13.8,18.4,N/A,,Clear,190,2013-08-18 13:55:00
9:16 AM,69.8,59.0,68,30.01,10.0,SSW,12.7,-,N/A,,Clear,200,2013-08-18 14:16:00
9:35 AM,69.8,59.0,68,30.01,10.0,SSW,11.5,19.6,N/A,,Clear,200,2013-08-18 14:35:00
9:55 AM,69.8,59.0,68,30.00,10.0,SSW,11.5,20.7,N/A,,Clear,200,2013-08-18 14:55:00
10:16 AM,71.6,59.0,64,30.00,10.0,SSW,10.4,18.4,N/A,,Clear,210,2013-08-18 15:16:00
10:35 AM,71.6,60.8,69,29.99,10.0,SSW,16.1,21.9,N/A,,Clear,200,2013-08-18 15:35:00
10:55 AM,73.4,60.8,65,29.99,10.0,SSW,11.5,17.3,N/A,,Clear,200,2013-08-18 15:55:00
11:16 AM,73.4,60.8,65,29.98,10.0,SSW,13.8,19.6,N/A,,Clear,200,2013-08-18 16:16:00
11:35 AM,73.4,60.8,65,29.97,10.0,SSW,18.4,21.9,N/A,,Clear,200,2013-08-18 16:35:00
11:55 AM,75.2,60.8,61,29.96,10.0,South,18.4,24.2,N/A,,Clear,190,2013-08-18 16:55:00
12:16 PM,77.0,62.6,61,29.96,10.0,SSW,17.3,20.7,N/A,,Clear,200,2013-08-18 17:16:00
12:35 PM,77.0,62.6,61,29.95,10.0,South,16.1,21.9,N/A,,Clear,190,2013-08-18 17:35:00
12:55 PM,78.8,62.6,57,29.97,10.0,South,17.3,21.9,N/A,,Clear,190,2013-08-18 17:55:00
1:16 PM,78.8,62.6,57,29.98,10.0,SSW,16.1,24.2,N/A,,Clear,200,2013-08-18 18:16:00
1:35 PM,80.6,62.6,54,29.98,10.0,South,16.1,23.0,N/A,,Scattered Clouds,190,2013-08-18 18:35:00
1:55 PM,80.6,62.6,54,29.98,10.0,SSW,17.3,21.9,N/A,,Scattered Clouds,200,2013-08-18 18:55:00
2:15 PM,80.6,62.6,54,29.98,10.0,South,16.1,23.0,N/A,,Scattered Clouds,190,2013-08-18 19:15:00
2:35 PM,80.6,62.6,54,29.97,10.0,SSW,18.4,23.0,N/A,,Scattered Clouds,200,2013-08-18 19:35:00
2:55 PM,80.6,62.6,54,29.96,10.0,South,15.0,-,N/A,,Scattered Clouds,190,2013-08-18 19:55:00
3:15 PM,80.6,62.6,54,29.96,10.0,SSW,19.6,24.2,N/A,,Clear,200,2013-08-18 20:15:00
3:35 PM,78.8,62.6,57,29.96,10.0,SSW,16.1,21.9,N/A,,Mostly Cloudy,200,2013-08-18 20:35:00
3:55 PM,80.6,62.6,54,29.95,10.0,SSW,16.1,25.3,N/A,,Mostly Cloudy,200,2013-08-18 20:55:00
4:15 PM,80.6,62.6,54,29.95,10.0,SSW,18.4,25.3,N/A,,Scattered Clouds,210,2013-08-18 21:15:00
4:35 PM,78.8,64.4,61,29.95,10.0,SSW,13.8,21.9,N/A,,Scattered Clouds,200,2013-08-18 21:35:00
4:55 PM,78.8,62.6,57,29.94,10.0,SSW,19.6,-,N/A,,Mostly Cloudy,200,2013-08-18 21:55:00
5:15 PM,78.8,64.4,61,29.94,10.0,SSW,13.8,-,N/A,,Mostly Cloudy,200,2013-08-18 22:15:00
5:35 PM,78.8,64.4,61,29.93,10.0,South,17.3,21.9,N/A,,Overcast,180,2013-08-18 22:35:00
5:55 PM,78.8,64.4,61,29.93,10.0,South,15.0,21.9,N/A,,Overcast,190,2013-08-18 22:55:00
6:15 PM,78.8,64.4,61,29.92,10.0,SSW,15.0,-,N/A,,Mostly Cloudy,200,2013-08-18 23:15:00
6:35 PM,78.8,64.4,61,29.92,10.0,SSW,13.8,20.7,N/A,,Mostly Cloudy,210,2013-08-18 23:35:00
6:55 PM,78.8,64.4,61,29.92,10.0,SSW,12.7,18.4,N/A,,Scattered Clouds,200,2013-08-18 23:55:00
7:15 PM,78.8,64.4,61,29.92,10.0,SSW,13.8,18.4,N/A,,Mostly Cloudy,200,2013-08-19 00:15:00
7:35 PM,77.0,64.4,65,29.93,10.0,SSW,13.8,19.6,N/A,,Mostly Cloudy,210,2013-08-19 00:35:00
7:55 PM,77.0,64.4,65,29.92,10.0,South,10.4,16.1,N/A,,Scattered Clouds,190,2013-08-19 00:55:00
8:15 PM,75.2,64.4,69,29.92,10.0,South,8.1,-,N/A,,Scattered Clouds,190,2013-08-19 01:15:00
8:35 PM,73.4,64.4,73,29.91,10.0,South,9.2,-,N/A,,Clear,180,2013-08-19 01:35:00
8:55 PM,73.4,64.4,73,29.92,10.0,South,9.2,-,N/A,,Clear,190,2013-08-19 01:55:00
9:16 PM,73.4,64.4,73,29.93,10.0,South,5.8,-,N/A,,Clear,180,2013-08-19 02:16:00
9:35 PM,73.4,64.4,73,29.94,10.0,South,6.9,-,N/A,,Clear,180,2013-08-19 02:35:00
9:55 PM,73.4,64.4,73,29.95,10.0,South,8.1,-,N/A,,Clear,190,2013-08-19 02:55:00
10:16 PM,71.6,64.4,78,29.95,10.0,South,8.1,-,N/A,,Clear,190,2013-08-19 03:16:00
10:35 PM,73.4,64.4,73,29.95,10.0,SSW,11.5,-,N/A,,Clear,200,2013-08-19 03:35:00
10:55 PM,73.4,64.4,73,29.95,10.0,SSW,9.2,-,N/A,,Clear,200,2013-08-19 03:55:00
11:16 PM,73.4,64.4,73,29.95,10.0,South,8.1,-,N/A,,Clear,190,2013-08-19 04:16:00
11:35 PM,71.6,64.4,78,29.95,10.0,South,6.9,-,N/A,,Clear,180,2013-08-19 04:35:00
11:55 PM,71.6,64.4,78,29.95,10.0,South,8.1,-,N/A,,Clear,190,2013-08-19 04:55:00